ANA856 WIII-RJTT

Flight info

Callsign ANA856
Flight time N/A
Altitude 37000
Route AMBOY P648 BUKTU M772 ANIPU/N0495F380 M772 ANIRU/N0492F390 M772 LAXOR N884 LULBU M754 AKOTA L625 AVMUP/N0488F400 L625 MEVIN/N0491F390 B462 KAZIK Y59 AZAMA Y57 SUKBO Y571 BILLY Y21 AKSEL
Aircraft B789/H-SDE1E2E3FGHIJ2J3J4J5M1RWXY/LB1D1

Departure

Time N/A
Airport Soekarno-Hatta International Airport (WIII)

Arrival

Time 2026-05-04 08:05
Airport Tokyo Haneda International Airport (RJTT)
Time Latitude Longitude Altitude Speed Heading
2026-05-04 06:27 27.23866 128.81742 38708 ft 547 kts 35°
2026-05-04 06:28 27.26762 128.84512 38994 ft 547 kts 35°
2026-05-04 06:28 27.29620 128.87247 39252 ft 546 kts 35°
2026-05-04 06:28 27.32510 128.90012 39523 ft 545 kts 34°
2026-05-04 06:28 27.35395 128.92776 39788 ft 544 kts 34°
2026-05-04 06:29 27.38277 128.95538 40045 ft 544 kts 34°
2026-05-04 06:29 27.41152 128.98296 40303 ft 543 kts 34°
2026-05-04 06:29 27.44021 129.01050 40570 ft 542 kts 34°
2026-05-04 06:29 27.46885 129.03802 40833 ft 541 kts 34°
2026-05-04 06:30 27.49746 129.06551 41071 ft 540 kts 34°
2026-05-04 06:30 27.52596 129.09334 41094 ft 546 kts 39°
2026-05-04 06:30 27.57603 129.15855 41090 ft 549 kts 46°
2026-05-04 06:31 27.62429 129.22449 41080 ft 548 kts 45°
2026-05-04 06:31 27.67301 129.29061 41085 ft 548 kts 46°
2026-05-04 06:33 27.86759 129.55669 41096 ft 549 kts 46°
2026-05-04 06:34 27.91617 129.62337 41093 ft 549 kts 46°
2026-05-04 06:34 27.96477 129.69017 41094 ft 550 kts 46°
2026-05-04 06:36 28.15878 129.95788 41089 ft 551 kts 46°
2026-05-04 06:37 28.20742 130.02526 41085 ft 551 kts 46°
2026-05-04 06:37 28.25599 130.09265 41088 ft 552 kts 46°
2026-05-04 06:38 28.30453 130.16012 41086 ft 552 kts 46°
2026-05-04 06:40 28.49842 130.43065 41097 ft 552 kts 46°
2026-05-04 06:40 28.54684 130.49847 41096 ft 552 kts 46°
2026-05-04 06:41 28.59520 130.56634 41099 ft 552 kts 46°
2026-05-04 06:41 28.64355 130.63430 41089 ft 553 kts 46°
2026-05-04 06:42 28.69164 130.70199 41095 ft 554 kts 46°
2026-05-04 06:44 28.88551 130.97604 41091 ft 556 kts 47°
2026-05-04 06:44 28.93392 131.04475 41077 ft 555 kts 47°
2026-05-04 06:45 28.97412 131.10189 41078 ft 555 kts 47°
2026-05-04 06:45 29.02249 131.17075 41085 ft 555 kts 47°
2026-05-04 06:46 29.07081 131.23966 41090 ft 556 kts 47°
2026-05-04 06:46 29.12704 131.31998 41087 ft 557 kts 47°
2026-05-04 06:48 29.31208 131.58545 41085 ft 557 kts 47°
2026-05-04 06:50 29.50493 131.86395 41076 ft 557 kts 47°
2026-05-04 06:51 29.55296 131.93361 41073 ft 556 kts 47°
2026-05-04 06:51 29.60095 132.00333 41075 ft 556 kts 47°
2026-05-04 06:52 29.64893 132.07316 41073 ft 556 kts 47°
2026-05-04 06:52 29.69803 132.14175 41072 ft 557 kts 47°
2026-05-04 06:53 29.74682 132.21096 41070 ft 557 kts 46°
2026-05-04 06:53 29.79616 132.27969 41066 ft 557 kts 46°
2026-05-04 06:54 29.84503 132.34888 41069 ft 557 kts 46°
2026-05-04 06:54 29.89417 132.41788 41067 ft 557 kts 46°
2026-05-04 06:55 29.94281 132.48674 41071 ft 557 kts 46°
2026-05-04 06:55 29.99181 132.55596 41060 ft 557 kts 46°
2026-05-04 06:57 30.18790 132.83458 41051 ft 559 kts 46°
2026-05-04 06:58 30.23692 132.90453 41048 ft 560 kts 47°
2026-05-04 06:58 30.28590 132.97454 41050 ft 560 kts 47°
2026-05-04 06:59 30.33488 133.04468 41049 ft 561 kts 47°
2026-05-04 06:59 30.38388 133.11498 41046 ft 560 kts 47°
2026-05-04 07:01 30.57862 133.39557 41035 ft 559 kts 47°
2026-05-04 07:02 30.62728 133.46598 41032 ft 560 kts 47°
2026-05-04 07:02 30.67604 133.53669 41031 ft 561 kts 47°
2026-05-04 07:03 30.72482 133.60754 41027 ft 561 kts 47°
2026-05-04 07:03 30.77356 133.67846 41030 ft 562 kts 47°
2026-05-04 07:04 30.82233 133.74955 41022 ft 561 kts 47°
2026-05-04 07:04 30.87065 133.82006 41019 ft 560 kts 47°
2026-05-04 07:05 30.91927 133.89115 41010 ft 561 kts 47°
2026-05-04 07:05 30.96798 133.96249 41016 ft 561 kts 47°
2026-05-04 07:06 31.04078 134.06938 41004 ft 561 kts 47°
2026-05-04 07:07 31.08893 134.14022 41003 ft 561 kts 48°
2026-05-04 07:09 31.28283 134.42684 40990 ft 564 kts 48°
2026-05-04 07:09 31.33145 134.49905 40990 ft 564 kts 48°
2026-05-04 07:10 31.37993 134.57118 40989 ft 564 kts 48°
2026-05-04 07:12 31.57355 134.86060 40983 ft 565 kts 49°
2026-05-04 07:12 31.62196 134.93329 40980 ft 565 kts 49°
2026-05-04 07:13 31.67034 135.00610 40975 ft 566 kts 49°
2026-05-04 07:13 31.71895 135.07892 40972 ft 564 kts 44°
2026-05-04 07:14 31.85007 135.24975 40965 ft 563 kts 44°
2026-05-04 07:15 31.90259 135.31827 40960 ft 564 kts 44°
2026-05-04 07:15 31.95503 135.38698 40961 ft 564 kts 44°
2026-05-04 07:16 32.00751 135.45575 40955 ft 565 kts 44°
2026-05-04 07:16 32.05997 135.52469 40954 ft 564 kts 44°
2026-05-04 07:17 32.11228 135.59353 40950 ft 563 kts 44°
2026-05-04 07:17 32.16423 135.66203 40952 ft 564 kts 44°
2026-05-04 07:18 32.21657 135.73119 40949 ft 564 kts 44°
2026-05-04 07:18 32.26895 135.80050 40938 ft 565 kts 44°
2026-05-04 07:19 32.32133 135.86997 40933 ft 566 kts 45°
2026-05-04 07:19 32.37374 135.93959 40932 ft 566 kts 45°
2026-05-04 07:20 32.42606 136.00923 40924 ft 566 kts 45°
2026-05-04 07:20 32.47809 136.07852 40924 ft 566 kts 45°
2026-05-04 07:22 32.68773 136.35902 40911 ft 568 kts 45°
2026-05-04 07:23 32.74006 136.42937 40902 ft 569 kts 45°
2026-05-04 07:23 32.79241 136.49989 40901 ft 569 kts 45°
2026-05-04 07:24 32.84489 136.57071 40897 ft 570 kts 45°
2026-05-04 07:24 32.89735 136.64165 40889 ft 571 kts 45°
2026-05-04 07:26 33.10685 136.92595 40878 ft 572 kts 45°
2026-05-04 07:27 33.15930 136.99750 40875 ft 572 kts 46°
2026-05-04 07:27 33.21182 137.06924 40871 ft 573 kts 46°
2026-05-04 07:28 33.26434 137.14117 40871 ft 574 kts 46°
2026-05-04 07:28 33.31682 137.21320 40865 ft 575 kts 46°
2026-05-04 07:29 33.36930 137.28536 40863 ft 575 kts 46°
2026-05-04 07:29 33.42144 137.35720 40855 ft 575 kts 46°
2026-05-04 07:30 33.47386 137.42958 40855 ft 575 kts 46°
2026-05-04 07:30 33.52628 137.50210 40858 ft 576 kts 46°
2026-05-04 07:31 33.57870 137.57476 40849 ft 576 kts 46°
2026-05-04 07:33 33.72330 137.86449 40834 ft 580 kts 61°
2026-05-04 07:33 33.73612 137.89264 40834 ft 580 kts 61°
2026-05-04 07:33 33.77483 137.97771 40829 ft 580 kts 61°
2026-05-04 07:34 33.81977 138.07653 40826 ft 579 kts 61°
2026-05-04 07:34 33.85206 138.14780 40819 ft 579 kts 61°
2026-05-04 07:35 33.89055 138.23284 40811 ft 578 kts 62°
2026-05-04 07:35 33.92866 138.31748 40810 ft 579 kts 62°
2026-05-04 07:36 33.96658 138.40302 40807 ft 579 kts 62°
2026-05-04 07:38 34.11806 138.74508 40776 ft 577 kts 62°
2026-05-04 07:38 34.15572 138.83065 40766 ft 577 kts 62°
2026-05-04 07:39 34.19328 138.91623 40761 ft 577 kts 62°
2026-05-04 07:39 34.23078 139.00190 40754 ft 576 kts 62°
2026-05-04 07:40 34.26818 139.08753 40739 ft 576 kts 63°
2026-05-04 07:40 34.30182 139.17445 40732 ft 574 kts 69°
2026-05-04 07:41 34.31700 139.21892 40232 ft 572 kts 69°
2026-05-04 07:41 34.33226 139.26359 39614 ft 572 kts 69°
2026-05-04 07:41 34.34767 139.30804 39003 ft 572 kts 68°
2026-05-04 07:41 34.36307 139.35246 38377 ft 573 kts 68°
2026-05-04 07:42 34.37833 139.39694 37711 ft 573 kts 69°
2026-05-04 07:42 34.39357 139.44158 37050 ft 573 kts 69°
2026-05-04 07:42 34.40887 139.48620 36383 ft 575 kts 69°
2026-05-04 07:42 34.42426 139.53102 35699 ft 578 kts 69°
2026-05-04 07:43 34.43964 139.57604 34977 ft 580 kts 70°
2026-05-04 07:43 34.45506 139.62132 34223 ft 582 kts 70°
2026-05-04 07:43 34.47259 139.66552 33444 ft 584 kts 59°
2026-05-04 07:43 34.49612 139.70568 32628 ft 584 kts 47°
2026-05-04 07:44 34.52475 139.74049 31774 ft 582 kts 37°
2026-05-04 07:44 34.55760 139.76902 30893 ft 580 kts 27°
2026-05-04 07:44 34.59164 139.79425 29965 ft 584 kts 27°
2026-05-04 07:44 34.62642 139.81983 28956 ft 584 kts 27°
2026-05-04 07:45 34.66206 139.84266 28023 ft 573 kts 17°
2026-05-04 07:45 34.69947 139.85796 27104 ft 560 kts
2026-05-04 07:45 34.73735 139.86594 26187 ft 546 kts 358°
2026-05-04 07:45 34.77505 139.87138 25288 ft 543 kts 358°
2026-05-04 07:46 34.81248 139.87659 24399 ft 540 kts 358°
2026-05-04 07:46 34.84972 139.88175 23513 ft 538 kts 357°
2026-05-04 07:46 34.88686 139.88705 22575 ft 534 kts 358°
2026-05-04 07:46 34.92345 139.89131 21704 ft 518 kts 351°
2026-05-04 07:47 34.95875 139.88921 20852 ft 497 kts 342°
2026-05-04 07:47 34.99196 139.88125 20027 ft 477 kts 334°
2026-05-04 07:47 35.02389 139.87120 19195 ft 471 kts 334°
2026-05-04 07:49 35.23449 139.80451 14028 ft 417 kts 334°
2026-05-04 07:49 35.26305 139.79900 13774 ft 412 kts 344°
2026-05-04 07:49 35.29142 139.79910 13430 ft 406 kts 355°
2026-05-04 07:50 35.31925 139.80506 12898 ft 406 kts
2026-05-04 07:50 35.34583 139.81658 12379 ft 406 kts 17°
2026-05-04 07:50 35.37043 139.83331 11870 ft 404 kts 28°
2026-05-04 07:50 35.39257 139.85416 11343 ft 397 kts 33°
2026-05-04 07:51 35.41389 139.87507 10843 ft 387 kts 33°
2026-05-04 07:51 35.43460 139.89556 10332 ft 379 kts 34°
2026-05-04 07:51 35.45314 139.91812 9854 ft 371 kts 40°
2026-05-04 07:51 35.47121 139.94005 9359 ft 356 kts 38°
2026-05-04 07:52 35.48838 139.96052 8874 ft 331 kts 39°
2026-05-04 07:52 35.50414 139.97978 8454 ft 308 kts 39°
2026-05-04 07:52 35.51869 139.99773 8105 ft 285 kts 39°
2026-05-04 07:52 35.53224 140.01434 7759 ft 266 kts 38°
2026-05-04 07:53 35.54281 140.03221 7358 ft 257 kts 65°
2026-05-04 07:54 35.54261 140.17657 5060 ft 232 kts 49°
2026-05-04 07:55 35.55447 140.18797 4949 ft 204 kts 15°
2026-05-04 07:55 35.56763 140.19101 4952 ft 185 kts 347°
2026-05-04 07:55 35.57966 140.18752 4965 ft 174 kts 328°
2026-05-04 07:55 35.58855 140.17902 4969 ft 155 kts 302°
2026-05-04 07:56 35.59402 140.16797 4975 ft 151 kts 291°
2026-05-04 07:56 35.59920 140.15672 4983 ft 151 kts 293°
2026-05-04 07:56 35.60422 140.14553 4977 ft 148 kts 289°
2026-05-04 07:56 35.60567 140.13333 4962 ft 143 kts 269°
2026-05-04 07:57 35.60553 140.12104 4971 ft 144 kts 269°
2026-05-04 07:57 35.60549 140.10867 4975 ft 145 kts 269°
2026-05-04 07:57 35.60544 140.09624 4977 ft 146 kts 269°
2026-05-04 07:57 35.60537 140.08392 4981 ft 145 kts 269°
2026-05-04 07:58 35.60533 140.07145 4971 ft 147 kts 269°
2026-05-04 07:58 35.60526 140.05873 4753 ft 148 kts 269°
2026-05-04 07:58 35.60519 140.04624 4493 ft 143 kts 269°
2026-05-04 07:58 35.60513 140.03406 4244 ft 143 kts 269°
2026-05-04 07:59 35.60509 140.02189 3998 ft 142 kts 268°
2026-05-04 07:59 35.60502 140.00983 3741 ft 141 kts 268°
2026-05-04 07:59 35.60496 139.99788 3506 ft 139 kts 266°
2026-05-04 07:59 35.60489 139.98604 3268 ft 138 kts 265°
2026-05-04 08:00 35.60484 139.97422 3033 ft 137 kts 265°
2026-05-04 08:00 35.60475 139.96258 2805 ft 135 kts 264°
2026-05-04 08:00 35.60470 139.95118 2559 ft 132 kts 264°
2026-05-04 08:02 35.60419 139.87343 984 ft 119 kts 261°
2026-05-04 08:02 35.60411 139.86300 1017 ft 123 kts 263°
2026-05-04 08:02 35.60407 139.85255 1047 ft 122 kts 259°
2026-05-04 08:03 35.60234 139.84252 1074 ft 119 kts 244°
2026-05-04 08:03 35.59743 139.83464 1051 ft 119 kts 216°
2026-05-04 08:03 35.59150 139.82794 1107 ft 117 kts 234°
2026-05-04 08:03 35.58884 139.81838 1150 ft 128 kts 256°
2026-05-04 08:04 35.58821 139.80755 945 ft 122 kts 257°
2026-05-04 08:04 35.58565 139.79820 791 ft 122 kts 236°
2026-05-04 08:04 35.58032 139.78967 542 ft 128 kts 226°
2026-05-04 08:04 35.57390 139.78275 295 ft 120 kts 214°
2026-05-04 08:05 35.56712 139.77680 64 ft 115 kts 214°
2026-05-04 08:05 35.56203 139.77244 40 ft 48 kts 215°
2026-05-04 08:05 35.55990 139.77062 36 ft 32 kts 216°
2026-05-04 08:05 35.55817 139.76940 33 ft 26 kts 197°
2026-05-04 08:06 35.55648 139.76907 30 ft 22 kts 169°
2026-05-04 08:06 35.55549 139.76966 29 ft 15 kts 148°
2026-05-04 08:06 35.55456 139.77036 27 ft 17 kts 149°
2026-05-04 08:06 35.55354 139.77109 32 ft 17 kts 150°
2026-05-04 08:08 35.54622 139.77626 28 ft 18 kts 150°
2026-05-04 08:08 35.54521 139.77689 25 ft 11 kts 176°
2026-05-04 08:10 35.54474 139.77634 18 ft 4 kts 240°
2026-05-04 08:11 35.54456 139.77596 36 ft 7 kts 240°
2026-05-04 08:11 35.54383 139.77442 27 ft 15 kts 240°
2026-05-04 08:11 35.54327 139.77336 27 ft 15 kts 230°
2026-05-04 08:12 35.54290 139.77267 28 ft 7 kts 240°
2026-05-04 08:12 35.54269 139.77224 27 ft 4 kts 240°
2026-05-04 08:12 35.54265 139.77213 27 ft 0 kts 240°